Total_Precipitation_Accumulation
0.08 0.04 0.03 0.09 0.09 0.05 0.08 0.09 0.10 0.03 0.02 0.07 0.01 0.01 0.01 0.01 0.01 0.00 0.00 0.01 0.01 0.01 0.01 0.03 0.02 0.03 0.04 0.03 0.04 0.03 0.03 0.05 0.09 0.04 0.03 0.02 0.03 0.02 0.02 0.01 0.01 0.01
0.07 0.02 0.03 0.03 0.03 0.06 0.13 0.04 0.02 0.07 0.02 0.05 0.03 0.06 0.01 0.01 0.00 0.00 0.01 0.01 0.01 0.00 0.02 0.02 0.02 0.02 0.03 0.04 0.04 0.03 0.05 0.03 0.08 0.03 0.02 0.02 0.02 0.03 0.02 0.01 0.01 0.00
0.02 0.05 0.07 0.05 0.06 0.19 0.17 0.12 0.06 0.10 0.04 0.03 0.03 0.05 0.06 0.00 0.01 0.00 0.01 0.01 0.00 0.01 0.01 0.02 0.04 0.02 0.02 0.04 0.06 0.03 0.07 0.05 0.10 0.02 0.04 0.03 0.02 0.03 0.04 0.02 0.02 0.02
0.01 0.03 0.04 0.03 0.03 0.07 0.04 0.04 0.15 0.02 0.02 0.04 0.02 0.02 0.00 0.06 0.01 0.03 0.00 0.00 0.00 0.01 0.01 0.01 0.02 0.02 0.03 0.02 0.05 0.03 0.05 0.05 0.03 0.02 0.04 0.06 0.02 0.03 0.03 0.03 0.01 0.03
0.00 0.01 0.02 0.02 0.01 0.02 0.01 0.03 0.06 0.03 0.04 0.07 0.00 0.01 0.00 0.06 0.01 0.01 0.01 0.01 0.00 0.00 0.01 0.01 0.01 0.02 0.02 0.02 0.04 0.06 0.02 0.06 0.03 0.02 0.04 0.07 0.02 0.01 0.04 0.02 0.03 0.01
0.00 0.00 0.00 0.00 0.00 0.01 0.04 0.03 0.01 0.02 0.03 0.01 0.02 0.02 0.00 0.00 0.02 0.04 0.01 0.00 0.00 0.00 0.03 0.03 0.05 0.00 0.01 0.02 0.02 0.03 0.05 0.03 0.04 0.03 0.02 0.02 0.02 0.02 0.01 0.01 0.01 0.01
0.00 0.00 0.00 0.00 0.01 0.01 0.01 0.01 0.00 0.00 0.02 0.01 0.06 0.01 0.01 0.01 0.00 0.01 0.00 0.02 0.01 0.00 0.01 0.01 0.01 0.03 0.02 0.01 0.01 0.02 0.02 0.02 0.06 0.08 0.03 0.02 0.01 0.01 0.01 0.02 0.01 0.01
0.00 0.00 0.00 0.00 0.00 0.01 0.01 0.02 0.02 0.00 0.03 0.01 0.02 0.01 0.00 0.00 0.02 0.00 0.02 0.01 0.02 0.00 0.00 0.01 0.08 0.01 0.01 0.01 0.02 0.02 0.01 0.01 0.03 0.02 0.03 0.01 0.01 0.02 0.01 0.00 0.01 0.01
0.00 0.00 0.01 0.00 0.00 0.00 0.01 0.01 0.01 0.01 0.00 0.01 0.01 0.03 0.01 0.01 0.01 0.02 0.01 0.01 0.01 0.01 0.01 0.02 0.02 0.02 0.01 0.02 0.03 0.04 0.01 0.00 0.02 0.01 0.01 0.01 0.01 0.00 0.01 0.01 0.01 0.01
0.05 0.04 0.00 0.00 0.00 0.03 0.03 0.10 0.05 0.01 0.01 0.01 0.01 0.00 0.01 0.02 0.01 0.05 0.01 0.01 0.02 0.04 0.04 0.03 0.03 0.04 0.02 0.01 0.01 0.02 0.01 0.00 0.01 0.01 0.00 0.03 0.01 0.01 0.01 0.00 0.01 0.01
0.08 0.07 0.02 0.01 0.03 0.08 0.05 0.05 0.04 0.06 0.03 0.02 0.01 0.01 0.04 0.09 0.04 0.05 0.10 0.13 0.12 0.11 0.10 0.06 0.05 0.03 0.01 0.01 0.00 0.01 0.02 0.07 0.02 0.01 0.06 0.02 0.01 0.00 0.01 0.01 0.01 0.01
0.25 0.20 0.07 0.14 0.08 0.03 0.06 0.02 0.01 0.01 0.00 0.01 0.02 0.05 0.06 0.08 0.10 0.18 0.22 0.21 0.15 0.12 0.10 0.07 0.02 0.01 0.00 0.01 0.00 0.01 0.02 0.01 0.02 0.00 0.01 0.01 0.01 0.00 0.00 0.01 0.01 0.00
0.65 0.82 0.68 0.31 0.07 0.07 0.16 0.22 0.12 0.01 0.03 0.03 0.04 0.11 0.22 0.21 0.24 0.24 0.21 0.18 0.14 0.10 0.06 0.03 0.01 0.00 0.01 0.01 0.01 0.00 0.01 0.02 0.00 0.01 0.01 0.01 0.00 0.00 0.01 0.00 0.00 0.01
0.45 0.75 0.76 0.38 0.35 0.20 0.21 0.13 0.23 0.14 0.12 0.15 0.29 0.30 0.29 0.31 0.28 0.26 0.22 0.16 0.09 0.04 0.03 0.02 0.01 0.01 0.01 0.00 0.04 0.01 0.03 0.01 0.01 0.00 0.01 0.00 0.02 0.02 0.01 0.00 0.02 0.02
0.60 0.82 1.21 0.66 0.31 0.54 0.36 0.21 0.36 0.30 0.35 0.37 0.26 0.39 0.42 0.34 0.22 0.14 0.07 0.04 0.02 0.03 0.04 0.03 0.03 0.04 0.04 0.02 0.04 0.01 0.02 0.01 0.01 0.00 0.01 0.08 0.05 0.11 0.04 0.03 0.03 0.08
0.71 0.96 1.05 0.90 0.61 1.59 2.10 0.66 0.61 0.70 0.68 0.54 0.37 0.35 0.26 0.17 0.11 0.08 0.05 0.03 0.03 0.01 0.05 0.03 0.04 0.05 0.01 0.02 0.01 0.03 0.04 0.02 0.02 0.01 0.07 0.08 0.02 0.03 0.11 0.10 0.06 0.08
2.13 1.42 1.11 1.26 1.86 1.75 1.84 1.53 0.87 0.39 0.30 0.31 0.26 0.17 0.14 0.13 0.12 0.10 0.08 0.05 0.03 0.04 0.04 0.10 0.05 0.06 0.03 0.00 0.00 0.00 0.02 0.02 0.01 0.05 0.13 0.05 0.08 0.03 0.01 0.03 0.09 0.10
1.99 2.40 1.93 1.46 1.49 2.45 2.20 1.53 1.17 0.69 0.43 0.18 0.11 0.17 0.15 0.17 0.21 0.15 0.11 0.07 0.05 0.04 0.06 0.06 0.05 0.03 0.00 0.00 0.00 0.00 0.00 0.00 0.03 0.04 0.15 0.16 0.12 0.07 0.12 0.07 0.11 0.06
2.09 1.83 1.86 1.74 2.43 2.59 2.56 2.11 1.12 0.99 1.08 0.87 0.39 0.45 0.40 0.15 0.17 0.24 0.22 0.29 0.08 0.05 0.04 0.04 0.05 0.00 0.00 0.00 0.00 0.00 0.00 0.01 0.04 0.11 0.12 0.06 0.02 0.02 0.06 0.09 0.09 0.11
1.71 1.76 1.92 2.45 2.65 2.90 2.35 1.36 1.46 0.83 0.91 1.23 0.67 0.47 0.41 0.31 0.27 0.20 0.14 0.16 0.08 0.13 0.09 0.07 0.05 0.02 0.01 0.00 0.00 0.01 0.01 0.02 0.01 0.11 0.21 0.13 0.02 0.13 0.15 0.03 0.05 0.08
2.15 2.13 2.15 2.48 2.57 2.29 1.61 1.59 1.40 1.31 1.11 1.49 1.24 1.18 0.80 0.58 0.32 0.28 0.14 0.10 0.13 0.08 0.20 0.11 0.04 0.03 0.02 0.01 0.00 0.00 0.00 0.00 0.03 0.20 0.32 0.02 0.03 0.03 0.04 0.11 0.42 0.75
1.80 1.78 2.11 3.10 3.03 2.05 1.49 1.67 1.36 1.34 1.66 1.97 1.77 1.35 1.10 0.74 0.44 0.32 0.18 0.26 0.25 0.25 0.21 0.15 0.06 0.03 0.01 0.01 0.01 0.02 0.01 0.02 0.04 0.18 0.24 0.03 0.03 0.07 0.06 0.12 0.24 0.52
1.83 2.36 1.88 1.81 2.32 2.59 2.47 2.62 2.61 2.52 2.02 2.19 1.60 0.93 0.64 0.74 0.60 0.52 0.23 0.68 0.51 0.39 0.20 0.09 0.11 0.07 0.07 0.05 0.04 0.03 0.02 0.03 0.03 0.03 0.06 0.05 0.08 0.10 0.19 0.42 0.35 0.41
2.01 1.69 2.25 2.49 2.14 2.19 2.20 2.47 2.65 2.59 2.94 2.79 1.94 1.47 1.44 1.87 1.62 0.59 1.49 1.81 1.36 0.61 0.33 0.18 0.12 0.08 0.21 0.29 0.35 0.03 0.04 0.05 0.05 0.06 0.12 0.12 0.13 0.42 0.69 0.67 0.24 0.28
1.23 1.36 1.57 2.35 2.60 1.91 2.23 2.69 2.53 2.29 2.17 1.99 1.76 1.58 1.90 2.31 2.09 2.18 3.36 2.84 2.33 1.92 0.58 0.36 0.32 0.42 0.38 0.39 0.71 0.84 0.98 0.87 0.31 0.19 0.21 0.33 0.34 0.60 0.93 0.33 0.37 0.13
0.74 0.65 0.82 1.35 0.90 1.21 2.81 2.76 3.43 3.09 2.28 2.06 1.94 2.63 2.72 2.49 2.94 2.61 2.40 2.38 1.95 1.47 1.32 1.00 0.89 0.79 0.96 0.35 0.66 1.02 0.48 0.60 0.65 0.25 0.27 0.32 0.31 0.33 0.74 0.38 0.21 0.18